Orbital Elements at Epoch 2459200.5 (2020-Dec-17.0) TDB
Reference: JPL 27 (heliocentric ecliptic J2000)
Element | Value | Uncertainty (1-sigma) | Units |
e | .07795502931150296 | 2.9398e-08 | |
a | 2.92935775338603 | 1.3603e-08 | au |
q | 2.700999583856944 | 8.7932e-08 | au |
i | .7707572765793301 | 3.5949e-06 | deg |
node | 249.1345482587795 | 0.00024061 | deg |
peri | 137.2829216348135 | 0.00024234 | deg |
M | 32.66609071521326 | 2.617e-05 | deg |
tp | 2459034.330347815822 (2020-Jul-03.83034782) | 0.00013351 | TDB |
period | 1831.289679191527 5.01 | 1.2756e-05 3.492e-08 | d yr |
n | .1965827711970353 | 1.3693e-09 | deg/d |
Q | 3.157715922915116 | 1.4664e-08 | au |
|
| | Orbit Determination Parameters
Additional Information
|